Flag for Canada Weather past 2 weeks in Selkirk, Manitoba, Canada

Now
72 °F

Mild.


Feels Like: 75 °F
Forecast: 61 / 78 °F
Wind: 3 mph from Southwest

Location: Winnipeg The Forks

Current Time: Aug 2, 2014 at 2:21:52 AM

Latest Report: Aug 2, 2014 at 1:00 AM


Visibility: N/A

Pressure: 30.02 "Hg

Humidity: 69%

Dew point: 61 °F

Location of SelkirkLocation

Historic Weather in Selkirk — Graph

°F

Selkirk temperature yesterday

Maximum temperature yesterday: 85 °F (at 6:00 PM)
Minimum temperature yesterday: 63 °F (at 6:00 AM)
Average temperature yesterday: 75 °F

Past Weeks' High & Low Weather Summary

 TemperatureHumidityPressure
High88 °F (Jul 20, 3:00 PM)92% (Jul 27, 4:00 AM)30.33 "Hg (Jul 27, 4:00 AM)
Low56 °F (Jul 23, 6:00 AM)28% (Jul 25, 5:00 PM)29.49 "Hg (Jul 20, 2:00 PM)
Average70 °F62%29.93 "Hg
* Reported Midnight between Jul 17 and Jul 18 — Midnight between Aug 1 and Aug 2, Selkirk, Weather by CustomWeather, © 2014

Note: Actual official high and low records may vary slightly from our data, if they occured in-between our weather recording intervals... More about our weather records

Advertising

Selkirk weather history for previous 24 hours

 ConditionsComfort  
Time TempWeatherWind HumidityBarometerVisibility
12:00 AM
Aug 2
73 °FMild.5 mph63%30.02 "HgN/A
11:00 PM
Aug 1
74 °FMild.3 mph64%30.02 "HgN/A
10:00 PM77 °FWarm.3 mph55%30.01 "HgN/A
9:00 PM80 °FWarm.3 mph46%30.01 "HgN/A
8:00 PM81 °FWarm.1 mph42%30.01 "HgN/A
7:00 PM83 °FPleasantly warm.3 mph38%30.01 "HgN/A
6:00 PM85 °FPleasantly warm.3 mph33%30.01 "HgN/A
5:00 PM84 °FPleasantly warm.3 mph34%30.02 "HgN/A
4:00 PM84 °FWarm.3 mph40%30.02 "HgN/A
3:00 PM83 °FWarm.5 mph45%30.03 "HgN/A
2:00 PM82 °FWarm.6 mph46%30.05 "HgN/A
1:00 PM79 °FWarm.3 mph46%30.05 "HgN/A
12:00 PM80 °FWarm.3 mph41%30.06 "HgN/A
11:00 AM78 °FWarm.2 mph42%30.06 "HgN/A
10:00 AM75 °FMild.2 mph54%30.05 "HgN/A
9:00 AM71 °FMild.1 mph63%30.05 "HgN/A
8:00 AM67 °FMild.No wind68%30.05 "HgN/A
7:00 AM65 °FMild.2 mph72%30.05 "HgN/A
6:00 AM63 °FMild.1 mph73%30.03 "HgN/A
5:00 AM65 °FMild.1 mph73%30.03 "HgN/A
4:00 AM66 °FMild.2 mph66%30.02 "HgN/A
3:00 AM66 °FMild.2 mph67%30.01 "HgN/A
2:00 AM66 °FMild.No wind77%30.01 "HgN/A
Weather by CustomWeather, © 2014

See weather overviewHow to use our weather pages